Regional Weather Roundup
Issued by NWS

Home | Current Version | Previous Version | Graphics & Text | Print | Product List | Glossary On
Versions: 1 2 3 4 5 6 7 8 9 10 11 12 13 14 15 16 17 18 19 20 21 22 23 24 25 26 27 28 29 30 31 32 33 34 35 36 37 38 39 40 41 42 43 44 45 46 47 48 49 50
000
ASUS43 KMKX 190511
RWRWI

WISCONSIN REGIONAL WEATHER ROUNDUP
NATIONAL WEATHER SERVICE MILWAUKEE/SULLIVAN WI
1200 AM CDT TUE SEP 19 2017

NOTE: "FAIR" INDICATES FEW OR NO CLOUDS BELOW 12,000 FEET WITH NO
SIGNIFICANT WEATHER AND/OR OBSTRUCTIONS TO VISIBILITY.

WIZ001-002-006>008-014>016-023>028-190600-
NORTHWEST WISCONSIN

CITY           SKY/WX    TMP DP  RH WIND       PRES   REMARKS
SUPERIOR ARPT  CLOUDY    55  52  89 E3        29.99F
ASHLAND        CLOUDY    55  53  93 CALM      30.03S
HAYWARD        CLOUDY    57  53  86 CALM      30.02S
SIREN          CLOUDY    57  54  89 SE3       29.98F
CUMBERLAND     CLOUDY    54  52  94 CALM      30.00F
RICE LAKE      DRIZZLE   56  55  95 E3        30.01F
CHETEK         DRIZZLE   56  56  97 CALM      30.00F
LADYSMITH      CLOUDY    58  57  96 E6        30.03S
EAU CLAIRE     CLOUDY    57  55  93 E5        29.98F
MENOMONIE      CLOUDY    57  56  94 CALM      29.99F
NEW RICHMOND   MOCLDY    55  54  94 SE3       29.98F
OSCEOLA        CLOUDY    57  57 100 SE6       30.00S
$$

WIZ003>005-009-010-017-018-190600-
NORTH CENTRAL WISCONSIN

CITY           SKY/WX    TMP DP  RH WIND       PRES   REMARKS
MANITOWISH WTR CLOUDY    55  55 100 S3        30.05S
ARBOR VITAE    CLOUDY    57  55  95 CALM      30.05F
WOODRUFF       CLOUDY    57  55  95 CALM      30.05F
RHINELANDER    CLOUDY    56  55  97 SE5       30.07R
EAGLE RIVER    CLOUDY    55  53  92 E6        30.06S
LAND O LAKES   CLOUDY    55  54  97 SE3       30.08F
PHILLIPS       CLOUDY    55  55 100 CALM      30.03F
TOMAHAWK         N/A     55  54  95 CALM      30.06S
MEDFORD        RAIN      56  55  97 E6        30.03S
MERRILL          N/A     55  55 100 CALM      30.06R
$$

WIZ029-030-035-036-043>047-190600-
CENTRAL WISCONSIN

CITY           SKY/WX    TMP DP  RH WIND       PRES   REMARKS
WAUSAU         CLOUDY    57  54  89 E6        30.03R
MOSINEE        CLOUDY    55  54  94 E3        30.04S
MARSHFIELD     CLOUDY    59  55  87 E3        30.02R
STEVENS POINT  CLOUDY    58  51  80 E7        30.03S
WAUPACA        CLOUDY    60  53  76 CALM      30.04R
WAUTOMA        CLOUDY    60  55  83 NE3       30.03S
WISC RAPIDS    CLOUDY    61  55  81 SE6       30.02F
CAMP DOUGLAS   CLOUDY    62  54  76 SE8       29.99F
$$

WIZ011>013-019>022-031-037>040-048>050-190600-
NORTHEAST WISCONSIN

CITY           SKY/WX    TMP DP  RH WIND       PRES   REMARKS
ANTIGO         CLOUDY    55  54  98 E6        30.05S
SHAWANO        LGT RAIN  61  55  79 NE6       30.04F
OCONTO         CLOUDY    56  53  89 NE3       30.04S
STURGEON BAY   CLOUDY    59  53  80 N5        30.04F
GREEN BAY      CLOUDY    58  53  84 NE5       30.02F
MANITOWOC      MOCLDY    57  54  89 NW6       30.02F
APPLETON       CLOUDY    59  48  67 E5        30.01F
CLINTONVILLE   CLOUDY    57  52  82 CALM      30.03F
OSHKOSH        CLOUDY    62  54  74 E6        30.01S
$$

WIZ032>034-041-042-053>061-190600-
SOUTHWEST WISCONSIN

CITY           SKY/WX    TMP DP  RH WIND       PRES   REMARKS
LA CROSSE      LGT RAIN  61  60  97 NE3       29.97F
SPARTA         PTCLDY    57  56  97 E3        29.98F
VIROQUA        CLOUDY    60  59  98 E8        29.98F
BOSCOBEL       CLOUDY    64  58  80 N3        29.97F
PRAIRIE DU CHI PTCLDY    60  56  85 CALM      29.96S
PLATTEVILLE    CLOUDY    64  60  85 SE7       29.98F
$$

WIZ056-057-062-063-064-067-068-190600-
SOUTH CENTRAL WISCONSIN

CITY           SKY/WX    TMP DP  RH WIND       PRES   REMARKS
REEDSBURG      CLOUDY    62  53  73 E3        29.99F
BARABOO/DELLS  CLOUDY    61  51  68 E6        30.00F
LONE ROCK      CLOUDY    64  58  80 E7        29.98F
MINERAL POINT  CLOUDY    64  59  82 E6        29.98F
MADISON        PTCLDY    60  54  80 E3        30.00S
MIDDLETON      PTCLDY    63  55  74 E5        30.00F
WATERTOWN      CLOUDY    58  58 100 CALM      29.99F
MONROE         CLOUDY    61  54  77 NE6       29.98F
JANESVILLE     CLOUDY    61  57  88 NE3       29.98F
$$

WIZ051-052-058>065-066-070>072-190600-
SOUTHEAST WISCONSIN

CITY           SKY/WX    TMP DP  RH WIND       PRES   REMARKS
MILWAUKEE      MOCLDY    65  60  84 E5        29.99F
WAUKESHA       CLOUDY    59  54  82 NE3       30.01S
MILWAUKEE/TIMM CLOUDY    59  54  82 CALM      30.01S
RACINE         CLOUDY    64  61  90 NE3       30.00F
BURLINGTON     CLOUDY    60  58  94 CALM      29.99F
KENOSHA        MOCLDY    61  58  90 E6        29.99F
FOND DU LAC    MOCLDY    61  53  75 NE5       30.01S
SHEBOYGAN      PTCLDY    55  55 100 NW5       30.00F
WEST BEND        N/A     55  54  94 CALM      30.00F
JUNEAU         CLOUDY    58  54  86 CALM      30.02S
$$

LSZ147-162-190600-
LAKE SUPERIOR

STATION/POSITION TIME  TEMP    WIND        PRES    WAVE
                       AIR SEA DIR/SP/G            HT/PER
                 (UTC) (F)     (DEG/KT/KT) (MB)    (FT/S)
W MID LAKE BUOY  0350   56 54  160/  8/ 10 1017.6R   1/ 4
DEVILS ISLAND    0500   58     140/  6/  8 1016.7F
SAXON HARBOR     0440   56      CALM  /  2 1016.3S
$$

LMZ867-665-643>646-190600-
LAKE MICHIGAN

STATION/POSITION TIME  TEMP    WIND        PRES    WAVE
                       AIR SEA DIR/SP/G            HT/PER
                 (UTC) (F)     (DEG/KT/KT) (MB)    (FT/S)
S GREEN BAY BUOY 0500   63 66  110/  8/ 12 1016.6
N MID LAKE BUOY  0450   64 65  100/ 14/ 16 1017.6F   1/ 3
NORTHPORT PIER   0440   64     110/ 12/ 14 1016.9F
KEWAUNEE LAKESHO 0442   61      50/  3/  4 1015.8F
SHEBOYGAN LAKESH 0500   61     320/  3/  3 1015.4F
PORT WASHINGTON  0440   62      50/  6/  7 1016.6F
ATWATER BUOY     0409   66 67   60/ 10/ 12 1015.9F
MILWAUKEE LAKESH 0450   66      50/  8/  9   N/A
S MID LAKE BUOY  0350   67 68   50/  6/  8 1016.2F   2/ 4
KENOSHA   LAKESH 0500   67      80/ 10/ 11 1015.2
$$

TC  - TEMPERATURE IN CELSIUS
VSB - VISIBILITY IN STATUTE MILES
WCI - WIND CHILL INDEX
HX  - HEAT INDEX





USA.gov is the U.S. government's official web portal to all federal, state and local government web resources and services.